Regional Weather Roundup
Issued by NWS State College, PA

Home | Current Version | Previous Version | Text Only | Print | Product List | Glossary Off
Versions: 1 2 3 4 5 6 7 8 9 10 11 12 13 14 15 16 17 18 19 20 21 22 23 24 25 26 27 28 29 30 31 32 33 34 35 36 37 38 39 40 41 42 43 44 45 46 47 48 49 50

000
ASUS41 KCTP 070710
RWRCTP

REGIONAL WEATHER ROUNDUP
NATIONAL WEATHER SERVICE STATE COLLEGE PA
300 AM EDT THU MAY 07 2015

Note: "fair" indicates few or no clouds below 12,000 feet with no
significant weather and/or obstructions to visibility.

* = STATION THAT DOES NOT REPORT PRECIPITATION /E.G. RAIN...SNOW...ETC/
    THUNDER OR FOG.

PAZ002>004-007>009-013>016-020>023-029>032-070800-
WESTERN PENNSYLVANIA

CITY           SKY/WX    TMP DP  RH WIND       PRES   REMARKS
ERIE           CLEAR     54  51  90 CALM      30.15F
MEADVILLE      CLEAR     56  53  90 CALM      30.17S FOG
FRANKLIN*      CLEAR     57  54  88 E5        30.18F
NEW CASTLE     FAIR      58  58 100 CALM      30.17F
BEAVER COUNTY  NOT AVBL
BUTLER*          N/A     55  54  94 NE5       30.18S VSB<1/4
PITTSBURGH INT CLEAR     64  60  87 CALM      30.15F
PITTSBURGH     CLEAR     63  56  78 CALM      30.14F
INDIANA*       PTCLDY    55  55 100 CALM      30.20F FOG
LATROBE        CLEAR     57  57 100 CALM      30.17F
WASHINGTON CO* CLEAR     55  54  94 CALM      30.16F
$$

PAZ004>006-010>012-017>019-024>028-033>037-041-042-045-046-049>053-070800-
CENTRAL PENNSYLVANIA

CITY           SKY/WX    TMP DP  RH WIND       PRES   REMARKS
BRADFORD       FOG       54  53  97 SE3       30.20F VSB 1/4
DUBOIS         CLOUDY    58  55  90 E3        30.18F FOG
CLEARFIELD     CLOUDY    55  53  93 E6        30.20F FOG
JOHNSTOWN      CLEAR     57  56  96 SW7       30.18F FOG
ALTOONA        CLOUDY    57  55  93 E5        30.19F FOG
STATE COLLEGE  FOG       52  52  99 CALM      30.21F VSB<1/4
WILLIAMSPORT   PTCLDY    54  52  93 CALM      30.21F
SELINSGROVE    CLOUDY    55  54  96 CALM      30.22F FOG
FT INDIANTOWN  CLOUDY    59  50  71 NE3       30.22S
CAPITAL CITY   CLOUDY    59  52  77 E5        30.21F
HARRISBURG     CLOUDY    59  53  80 NE3       30.20F
YORK           MOCLDY    52  50  93 CALM      30.20F
$$

PAZ038>040-043-044-047-048-054-055-060>062-067>071-070800-
EASTERN PENNSYLVANIA

CITY           SKY/WX    TMP DP  RH WIND       PRES   REMARKS
SCRANTON       CLOUDY    55  46  71 E5        30.22F
MOUNT POCONO   CLOUDY    50  46  86 CALM      30.23F
ALLENTOWN      CLOUDY    53  48  83 CALM      30.23S
QUAKERTOWN*    PTSUNNY   50  48  93 CALM      30.23F
READING        CLOUDY    58  51  78 CALM      30.21F
LANCASTER      CLOUDY    58  52  80 E6        30.21F
COATESVILLE    CLOUDY    59  52  77 CALM      30.22F
POTTSTOWN      CLOUDY    56  50  80 CALM      30.23F
BLUE BELL      PTCLDY    52  50  93 CALM      30.22S
DOYLESTOWN     PTCLDY    51  48  89 CALM      30.21F
WILLOW GROVE   NOT AVBL
NORTH PHILA    FAIR      56  47  71 N3        30.23F
PHILADELPHIA   MOCLDY    58  51  78 E5        30.22F
$$



USA.gov is the U.S. government's official web portal to all federal, state and local government web resources and services.